When you browse on this site, cookies collect data to enhance your experience and personalize the content and advertising you see.
Visit our Privacy Policy to learn more. By continuing to use the site, you agree to this use of cookies and data.
  • In Hungary
  • List of Countries
  • For 7 days
  • Water Temperature
  • Satellite Maps
  • Weather Map
  • News
  • Weather Widgets
  • user-avatar
    Login

    Hourly Weather Crevillente

    Today, 26 June, Wednesday

    Time Temperature Precipitation Wind Pressure Humidity
    00:00 +23°C° 0 mm 1 mps 752 mmHg 88%
    01:00 +23°C° 0 mm 1 mps 752 mmHg 89%
    02:00 +23°C° 0 mm 1 mps 752 mmHg 90%
    03:00 +22°C° 0 mm 1 mps 751 mmHg 90%
    04:00 +23°C° 0 mm 1 mps 752 mmHg 87%
    05:00 +24°C° 0 mm 2 mps 752 mmHg 83%
    06:00 +24°C° 0 mm 2 mps 752 mmHg 80%
    07:00 +26°C° 0 mm 2 mps 752 mmHg 70%
    08:00 +28°C° 0 mm 2 mps 753 mmHg 61%
    09:00 +30°C° 0 mm 1 mps 753 mmHg 52%
    10:00 +31°C° 0 mm 2 mps 753 mmHg 49%
    11:00 +33°C° 0 mm 3 mps 753 mmHg 47%
    12:00 +34°C° 0 mm 4 mps 753 mmHg 44%
    13:00 +34°C° 0 mm 4 mps 752 mmHg 43%
    14:00 +35°C° 0 mm 4 mps 752 mmHg 41%
    15:00 +35°C° 0 mm 3 mps 752 mmHg 40%
    16:00 +34°C° 0 mm 3 mps 752 mmHg 45%
    17:00 +33°C° 0 mm 4 mps 751 mmHg 49%
    18:00 +32°C° 0 mm 4 mps 751 mmHg 54%
    19:00 +29°C° 0 mm 3 mps 752 mmHg 60%
    20:00 +28°C° 0 mm 3 mps 752 mmHg 67%
    21:00 +26°C° 0 mm 2 mps 753 mmHg 73%
    22:00 +26°C° 0 mm 3 mps 753 mmHg 73%
    23:00 +26°C° 0 mm 3 mps 753 mmHg 73%

    Tomorrow, 27 June, Thursday

    Time Temperature Precipitation Wind Pressure Humidity
    00:00 +25°C° 0 mm 3 mps 753 mmHg 73%
    01:00 +25°C° 0 mm 3 mps 753 mmHg 72%
    02:00 +25°C° 0 mm 3 mps 752 mmHg 70%
    03:00 +25°C° 0 mm 3 mps 752 mmHg 69%
    04:00 +25°C° 0 mm 3 mps 752 mmHg 66%
    05:00 +26°C° 0 mm 3 mps 752 mmHg 63%
    06:00 +26°C° 0 mm 2 mps 752 mmHg 59%
    07:00 +29°C° 0 mm 4 mps 753 mmHg 50%
    08:00 +32°C° 0 mm 6 mps 753 mmHg 41%
    09:00 +35°C° 0 mm 7 mps 753 mmHg 33%
    10:00 +35°C° 0 mm 8 mps 753 mmHg 32%
    11:00 +37°C° 0 mm 8 mps 753 mmHg 32%
    12:00 +37°C° 0 mm 9 mps 753 mmHg 31%
    13:00 +37°C° 0 mm 9 mps 753 mmHg 31%
    14:00 +37°C° 0 mm 8 mps 753 mmHg 31%
    15:00 +37°C° 0 mm 8 mps 752 mmHg 30%
    16:00 +35°C° 0 mm 7 mps 752 mmHg 33%
    17:00 +34°C° 0 mm 7 mps 752 mmHg 36%
    18:00 +33°C° 0 mm 6 mps 752 mmHg 38%
    19:00 +30°C° 0 mm 5 mps 752 mmHg 45%
    20:00 +29°C° 0 mm 3 mps 752 mmHg 51%
    21:00 +27°C° 0 mm 2 mps 753 mmHg 57%
    22:00 +26°C° 0 mm 2 mps 753 mmHg 60%
    23:00 +25°C° 0 mm 1 mps 753 mmHg 63%

    Day after tomorrow, 28 June, Friday

    Time Temperature Precipitation Wind Pressure Humidity
    00:00 +25°C° 0 mm 1 mps 753 mmHg 66%
    01:00 +24°C° 0 mm 1 mps 752 mmHg 65%
    02:00 +24°C° 0 mm 1 mps 752 mmHg 65%
    03:00 +24°C° 0 mm 1 mps 752 mmHg 65%
    04:00 +25°C° 0 mm 1 mps 752 mmHg 61%
    05:00 +26°C° 0 mm 1 mps 752 mmHg 56%
    06:00 +27°C° 0 mm 1 mps 752 mmHg 52%
    07:00 +29°C° 0 mm 2 mps 752 mmHg 46%
    08:00 +31°C° 0 mm 2 mps 752 mmHg 40%
    09:00 +34°C° 0 mm 3 mps 752 mmHg 34%
    10:00 +35°C° 0 mm 3 mps 752 mmHg 31%
    11:00 +36°C° 0 mm 4 mps 752 mmHg 28%
    12:00 +37°C° 0 mm 4 mps 751 mmHg 25%
    13:00 +37°C° 0 mm 4 mps 751 mmHg 26%
    14:00 +37°C° 0 mm 4 mps 751 mmHg 27%
    15:00 +36°C° 0 mm 4 mps 751 mmHg 28%
    16:00 +35°C° 0 mm 4 mps 750 mmHg 31%
    17:00 +34°C° 0 mm 3 mps 750 mmHg 33%
    18:00 +33°C° 0 mm 3 mps 750 mmHg 36%
    19:00 +30°C° 0 mm 2 mps 750 mmHg 44%
    20:00 +28°C° 0 mm 1 mps 751 mmHg 51%
    21:00 +24°C° 0 mm 0 mps 751 mmHg 59%
    22:00 +23°C° 0 mm 0 mps 751 mmHg 58%
    23:00 +23°C° 0 mm 0 mps 751 mmHg 57%

    29 June, Saturday

    Time Temperature Precipitation Wind Pressure Humidity
    00:00 +23°C° 0 mm 0 mps 751 mmHg 57%
    01:00 +22°C° 0 mm 0 mps 750 mmHg 56%
    02:00 +22°C° 0 mm 0 mps 750 mmHg 54%
    03:00 +24°C° 0 mm 1 mps 750 mmHg 53%
    04:00 +25°C° 0 mm 1 mps 750 mmHg 49%
    05:00 +27°C° 0 mm 1 mps 750 mmHg 46%
    06:00 +28°C° 0 mm 1 mps 750 mmHg 42%
    07:00 +30°C° 0 mm 1 mps 750 mmHg 35%
    08:00 +33°C° 0 mm 1 mps 751 mmHg 29%
    09:00 +35°C° 0 mm 1 mps 751 mmHg 22%
    10:00 +37°C° 0 mm 2 mps 751 mmHg 22%
    11:00 +38°C° 0 mm 3 mps 751 mmHg 21%
    12:00 +40°C° 0 mm 4 mps 751 mmHg 21%
    13:00 +40°C° 0 mm 4 mps 751 mmHg 22%
    14:00 +38°C° 0 mm 4 mps 750 mmHg 23%
    15:00 +38°C° 0 mm 4 mps 750 mmHg 23%
    16:00 +37°C° 0 mm 4 mps 750 mmHg 26%
    17:00 +36°C° 0 mm 3 mps 750 mmHg 29%
    18:00 +35°C° 0 mm 3 mps 750 mmHg 32%
    19:00 +31°C° 0 mm 2 mps 750 mmHg 39%
    20:00 +29°C° 0 mm 2 mps 751 mmHg 46%
    21:00 +27°C° 0 mm 1 mps 751 mmHg 52%
    22:00 +26°C° 0 mm 1 mps 751 mmHg 54%
    23:00 +25°C° 0 mm 1 mps 751 mmHg 56%

    30 June, Sunday

    Time Temperature Precipitation Wind Pressure Humidity
    00:00 +22°C° 0 mm 0 mps 751 mmHg 59%
    01:00 +22°C° 0 mm 0 mps 751 mmHg 58%
    02:00 +24°C° 0 mm 1 mps 751 mmHg 58%
    03:00 +23°C° 0 mm 1 mps 751 mmHg 57%
    04:00 +25°C° 0 mm 1 mps 751 mmHg 52%
    05:00 +26°C° 0 mm 1 mps 752 mmHg 47%
    06:00 +28°C° 0 mm 1 mps 752 mmHg 41%
    07:00 +30°C° 0 mm 1 mps 752 mmHg 35%
    08:00 +33°C° 0 mm 1 mps 752 mmHg 28%
    09:00 +36°C° 0 mm 2 mps 753 mmHg 22%
    10:00 +37°C° 0 mm 3 mps 753 mmHg 23%
    11:00 +37°C° 0 mm 4 mps 753 mmHg 23%
    12:00 +38°C° 0 mm 4 mps 752 mmHg 24%
    13:00 +39°C° 0 mm 5 mps 752 mmHg 24%
    14:00 +39°C° 0 mm 5 mps 752 mmHg 25%
    15:00 +39°C° 0 mm 5 mps 752 mmHg 26%
    16:00 +36°C° 0 mm 5 mps 751 mmHg 30%
    17:00 +35°C° 0 mm 4 mps 751 mmHg 34%
    18:00 +34°C° 0 mm 3 mps 751 mmHg 38%
    19:00 +31°C° 0 mm 2 mps 752 mmHg 46%
    20:00 +29°C° 0 mm 1 mps 752 mmHg 55%
    21:00 +24°C° 0 mm 0 mps 753 mmHg 64%
    22:00 +26°C° 0 mm 1 mps 753 mmHg 65%
    23:00 +26°C° 0 mm 1 mps 752 mmHg 66%

    1 July, Monday

    Time Temperature Precipitation Wind Pressure Humidity
    00:00 +25°C° 0 mm 1 mps 752 mmHg 67%
    01:00 +25°C° 0 mm 1 mps 752 mmHg 69%
    02:00 +24°C° 0 mm 1 mps 752 mmHg 72%
    03:00 +24°C° 0 mm 1 mps 751 mmHg 74%
    04:00 +25°C° 0 mm 1 mps 751 mmHg 68%
    05:00 +26°C° 0 mm 1 mps 752 mmHg 62%
    06:00 +28°C° 0 mm 1 mps 752 mmHg 56%
    07:00 +29°C° 0 mm 1 mps 752 mmHg 50%
    08:00 +31°C° 0 mm 2 mps 752 mmHg 44%
    09:00 +34°C° 0 mm 2 mps 752 mmHg 38%
    10:00 +34°C° 0 mm 3 mps 752 mmHg 39%
    11:00 +35°C° 0 mm 4 mps 752 mmHg 40%
    12:00 +35°C° 0 mm 5 mps 752 mmHg 41%
    13:00 +35°C° 0 mm 4 mps 751 mmHg 41%
    14:00 +35°C° 0 mm 4 mps 751 mmHg 42%
    15:00 +35°C° 0 mm 3 mps 751 mmHg 42%
    16:00 +34°C° 0 mm 3 mps 750 mmHg 44%
    17:00 +33°C° 0 mm 3 mps 750 mmHg 45%
    18:00 +32°C° 0 mm 2 mps 750 mmHg 47%
    19:00 +30°C° 0 mm 2 mps 750 mmHg 55%
    20:00 +28°C° 0 mm 1 mps 750 mmHg 63%
    21:00 +24°C° 0 mm 0 mps 751 mmHg 71%
    22:00 +24°C° 0 mm 0 mps 751 mmHg 72%
    23:00 +23°C° 0 mm 0 mps 751 mmHg 74%
    Show more